Location: ??????
(38.0131°N, 23.7723°E)
Time: 06:30:22
(UTC+00:00)

Cosmos 405 Rocket - Pass Details

Date: 17 October 2021
Orbit: 488 x 551 km, 81.3° (Epoch: 28 November)

Event Time Altitude Azimuth Distance (km) Brightness Sun altitude
Rises 16:44:21 0° 359° (N) 2,678 6.3 -12.5°
Reaches altitude 10° 16:46:35 10° 7° (N) 1,794 5.3 -13.0°
Maximum altitude 16:50:19 39° 78° (ENE) 821 3.2 -13.7°
Drops below altitude 10° 16:54:04 10° 148° (SSE) 1,809 5.2 -14.5°
Sets 16:56:20 0° 156° (SSE) 2,703 6.1 -14.9°
